Retour au catalogue

CZ-6A DEB

ActifPO
NORAD 60768·DEBRIS·🇨🇳 China

Lancé Aug 6, 2024 depuis Taiyuan Satellite Launch Center

Loading…

Prochains Passages (prochaines 24 heures)

TLE

FraisSource: Space-Track

Époque: Sep 14, 2026, 18:18 UTC

1 60768U 24140ET  26257.76270396  .00002531  00000-0  50528-3 0  9994
2 60768  89.0866 267.9959 0109761 316.1967  43.0576 14.57887554111046

Suivez CZ-6A DEB en temps réel avec AllMySat

Download on the App Store